Weather in Husinec

Czech Republic     49°03′14″N   13°59′14″E
temp.,
°C
wind,
m/s
gust,
m/s
humid.,
%
clouds,
%
prec.,
mm/h
press.,
hPa
HPBL,
m
28 november, sun
sun2801:00−1wsw1194100 0.0 99841
04:00−1ne1195100 0.0 99730
07:00−2n1297100 0.6 998141
10:00−1n2395100 2.5 997304
13:00−1nnw2492100 4.4 997433
16:00−3nw249487 0.7 998196
19:00−5wsw219786 0.7 99920
22:00−5sw2297100 0.1 100028
29 november, mon
mon2901:00−6sw229751 0.1 100016
04:00−5sw239490 0.0 100264
07:00−6wsw2395100 0.0 100443
10:00−2w387684 0.0 1004754
13:000w487081 0.0 10041219
16:00−2w4107997 0.1 10071031
19:00−2w4118366 0.1 1009810
22:00−2wnw4118778 0.1 1011850
30 november, tue
tue3001:00−2w5128248 0.3 1012771
04:00−3w41082100 0.0 1014674
07:00−3w5137999 0.0 1015824
10:00−1wsw61378100 0.1 10151093
13:00−1wsw91878100 0.4 10121167
16:00−1wsw112180100 1.1 10091126
19:00−1wsw102082100 1.9 10101053
22:000wsw91985100 1.6 10101020
1 december, wed
wed101:00+1wsw81788100 2.0 1011924
04:00+1wsw71790100 0.3 1010760
07:00+2wsw61690100 0.4 1009682
10:00+2wsw5159399 0.2 1009776
13:00+3wsw61690100 0.2 1006964
16:00+3wsw61686100 0.0 1004857
19:00+2wsw6178698 0.0 1003748
22:00+2wsw6178635 0.0 10021033
2 december, thu
thu201:00+2sw41292100 0.1 1000845
04:00+1sw31296100 0.2 1001838
07:00+1wsw51294100 0.8 1000830
10:00+1sw31196100 0.2 1000625
13:00+1sw3895100 0.3 1000640
16:00+1wsw2794100 0.1 999808
19:00+1ssw2492100 0.1 999212
22:000sw2590100 0.0 1000342